TimeAKST,TemperatureF,Dew PointF,Humidity,Sea Level PressureIn,VisibilityMPH,Wind Direction,Wind SpeedMPH,Gust SpeedMPH,PrecipitationIn,Events,Conditions,WindDirDegrees,DateUTC
12:53 AM,27.0,19.0,72,29.91,10.0,West,16.1,20.7,N/A,,Mostly Cloudy,270,2013-01-15 09:53:00
1:53 AM,25.0,17.1,72,29.96,10.0,West,12.7,19.6,N/A,Snow,Light Snow,260,2013-01-15 10:53:00
3:53 AM,18.0,9.0,68,30.05,10.0,West,20.7,26.5,N/A,Snow,Light Snow,260,2013-01-15 12:53:00
4:53 AM,16.0,8.1,71,30.09,10.0,West,11.5,-,N/A,Snow,Light Snow,260,2013-01-15 13:53:00
5:53 AM,16.0,9.0,74,30.11,10.0,WSW,3.5,-,N/A,Snow,Light Snow,240,2013-01-15 14:53:00
6:53 AM,14.0,8.1,77,30.12,10.0,SW,4.6,-,N/A,,Mostly Cloudy,230,2013-01-15 15:53:00
7:53 AM,12.0,7.0,80,30.14,10.0,West,5.8,-,N/A,,Overcast,270,2013-01-15 16:53:00
8:53 AM,10.9,7.0,84,30.15,10.0,South,3.5,-,N/A,,Mostly Cloudy,190,2013-01-15 17:53:00
9:53 AM,10.9,7.0,84,30.16,10.0,Calm,Calm,-,N/A,Snow,Light Snow,0,2013-01-15 18:53:00
10:53 AM,14.0,9.0,80,30.17,10.0,SSW,3.5,-,N/A,Snow,Light Snow,210,2013-01-15 19:53:00
11:53 AM,14.0,9.0,80,30.19,10.0,South,6.9,-,N/A,,Mostly Cloudy,180,2013-01-15 20:53:00
12:53 PM,10.9,8.1,88,30.19,10.0,Calm,Calm,-,N/A,,Mostly Cloudy,0,2013-01-15 21:53:00
1:53 PM,3.0,-0.0,87,30.21,10.0,Calm,Calm,-,N/A,,Mostly Cloudy,0,2013-01-15 22:53:00
2:53 PM,6.1,3.0,87,30.23,10.0,North,4.6,-,N/A,,Mostly Cloudy,10,2013-01-15 23:53:00
3:53 PM,9.0,6.1,88,30.23,10.0,Calm,Calm,-,N/A,,Mostly Cloudy,0,2013-01-16 00:53:00
4:53 PM,9.0,6.1,88,30.24,10.0,Calm,Calm,-,N/A,,Mostly Cloudy,0,2013-01-16 01:53:00
5:53 PM,10.0,6.1,84,30.24,10.0,Calm,Calm,-,N/A,,Mostly Cloudy,0,2013-01-16 02:53:00
6:53 PM,8.1,5.0,87,30.25,10.0,NNE,3.5,-,N/A,,Mostly Cloudy,20,2013-01-16 03:53:00
7:53 PM,8.1,3.9,83,30.25,10.0,NNE,3.5,-,N/A,,Mostly Cloudy,20,2013-01-16 04:53:00
8:53 PM,5.0,1.9,87,30.25,10.0,NW,3.5,-,N/A,,Mostly Cloudy,310,2013-01-16 05:53:00
9:53 PM,7.0,3.9,87,30.25,10.0,NNE,4.6,-,N/A,,Mostly Cloudy,30,2013-01-16 06:53:00
10:53 PM,5.0,1.9,87,30.25,10.0,Calm,Calm,-,N/A,,Mostly Cloudy,0,2013-01-16 07:53:00
11:53 PM,6.1,3.0,87,30.25,10.0,NNE,3.5,-,N/A,,Mostly Cloudy,20,2013-01-16 08:53:00